Tracking 21611 objects as of 22-Oct-2020
HD Live streaming from Space Station
objects crossing your sky now

NAVSTAR 79 (USA 304)

Track NAVSTAR 79 (USA 304) now!
NAVSTAR 79 (USA 304) is classified as:


NORAD ID: 45854
Int'l Code: 2020-041A
Perigee: 20,166.3 km
Apogee: 20,211.4 km
Inclination: 55.1 °
Period: 718.0 minutes
Semi major axis: 26559 km
RCS: Unknown
Launch date: June 30, 2020
Source: United States (US)
Launch site: AIR FORCE EASTERN TEST RANGE (AFETR)
PRN:
aabbcc
Your satellite tracking list
Your tracking list is empty




NASA's NSSDC Master Catalog

Two Line Element Set (TLE):
1 45854U 20041A   20295.11866405 +.00000019 +00000-0 +10000-3 0  9996
2 45854 055.1139 110.4364 0008491 118.5622 241.5505 02.00569761002626
Source of the keplerian elements: AFSPC